Preview of NWS' New Version of Forecast
This preview is not operational and should not be used for support decisions.

Regional Weather Roundup (RWR)

Issued by Charleston, SC (CHS)

                            
000
ASUS42 KCHS 170527
RWRCHS

Regional Weather Roundup
National Weather Service Charleston SC
1200 AM EST MON DEC 17 2018

NOTE: "fair" indicates few or no clouds below 12,000 feet with no
significant weather and/or obstructions to visibility.

Not all stations are quality controlled. Use data with caution,
especially dewpoint observations.

SCZ027-030-031-034>040-042>050-170600-
...Southeast South Carolina...
  
CITY           SKY/WX    TMP DP  RH WIND       PRES   REMARKS
N Charleston   FAIR      47  45  93 W7        30.05F                  
Waterfront Prk   N/A     50  47  89 W5        29.91F                  
Mount Pleasant FAIR      48  46  93 W7        30.04F                  
Johns Island   FAIR      50  46  87 W9        30.06S                  
Pinopolis        N/A     50  48  93 W8        29.98F                  
Moncks Corner  FAIR      46  46 100 CALM      30.05S                  
Summerville    FAIR      45  45 100 W5        30.07F                  
Beaufort MCAS  FAIR      49  46  90 W8        30.08F                  
Beaufort Arpt  FAIR      48  45  87 W6        30.08S                  
Hilton Head Is FAIR      50  46  87 VRB5      30.09S                  
Walterboro     FAIR      45  43  93 W5        30.08S                  
Allendale      FAIR      45  45 100 CALM      30.07F                  

...Southern Midlands and Pee Dee...
  
CITY           SKY/WX    TMP DP  RH WIND       PRES   REMARKS
Georgetown     FAIR      46  46 100 W8        30.04F                  
Kingstree      FAIR      43  41  93 CALM      30.04F                  
Orangeburg     FAIR      47  43  86 W3        30.06F                  
Barnwell       FAIR      45  43  93 W3        30.08S                  
Aiken          FAIR      41  41 100 W5        30.10S                  
Manning        FAIR      46  45  93 CALM      30.05S                  
Columbia       FAIR      42  42 100 W7        30.06S                  
Sumter         FAIR      47  44  89 W8        30.03F                  
Florence       FAIR      49  44  83 NW6       30.04S                  
Myrtle Beach   FAIR      51  46  83 W10       30.03S                  
N Myrtle Beach FAIR      50  46  86 W5        30.01S                  

$$
 
GAZ063-065-086>088-099>101-113>116-118-119-134>141-150-170600-
...Southeast Georgia...
  
CITY           SKY/WX    TMP DP  RH WIND       PRES   REMARKS
Savannah Arpt  FAIR      45  44  97 W6        30.10F                  
Hunter AAF     FAIR      45  41  84 SW5       30.07F                  
Fort Stewart   FAIR      46  45  96 SW6       30.08F                  
Statesboro     FAIR      45  43  95 NW5       30.09F                  
Sylvania       FAIR      45  45  99 NW3       30.09F                  
Claxton        FAIR      46  46  97 CALM      30.10S                  

...CSRA, Central and far Southeast Georgia...
  
CITY           SKY/WX    TMP DP  RH WIND       PRES   REMARKS
Thomson        FAIR      44  42  95 N6        30.15S                  
Augusta-Bush   FAIR      42  40  92 W3        30.09S                  
Augusta-Daniel FAIR      48  42  80 NW8       30.08F                  
Swainsboro     FAIR      43  43 100 NW5       30.11S                  
Vidalia        FAIR      46  43  87 CALM      30.11S                  
Eastman        FAIR      46  45  95 CALM      30.14F                  
Hazlehurst     FAIR      48  45  88 W3        30.11S                  
Alma           FAIR      50  45  83 W5        30.12F                  
Waycross       FAIR      46  44  90 W3        30.12F                  
Jesup          FAIR      48  45  87 CALM      30.12S                  
Baxley         FAIR      45  45 100 W3        30.11F                  
Brunswick      FAIR      46  43  87 CALM      30.12F                  
Saint Simons   FAIR      49  45  86 W6        30.12S                  

$$

SCZ027-028-034-036>038-045-046-048>050-GAZ119-141-170600-
...Lake and Supplemental Coastal Observations...
  
STATION/POSITION TIME  TEMP    WIND        PRES    WAVE   SWELL
                       AIR SEA DIR/SP/G            HT/PER HT/PER/DIR
                 (UTC) (F)     (DEG/KT/KT) (MB)    (FT/S) (FT/S/D)
Winyah Bay       0445   51     290/  8     1016.0S
Lake Murray      0420   49     290/  5/  7 1017.3S
ACE Basin NERRS  0445   48     240/  2     1018.0F
Fort Pulaski     0454   50 54  270/  6/  8 1019.1F
Sapelo Island    0500   49     250/  7     1019.0

$$

ANZ835-935-AMZ111-154-330-350-352-354-370-450-454-472-170600-
...C-MAN and Buoy Observations...
  
STATION/POSITION TIME  TEMP    WIND        PRES    WAVE   SWELL
                       AIR SEA DIR/SP/G            HT/PER HT/PER/DIR
                 (UTC) (F)     (DEG/KT/KT) (MB)    (FT/S) (FT/S/D)
Buoy 41004       0510   59 73  300/ 17/ 21 1017.4
Buoy 41008       0450   54 57  280/ 14/ 17 1019.2F   2/ 4   2/ 70/ 9
Folly Beach CMAN 0500   49     260/  4/  6 1018.1F
Capers Nearshore 0508   53 59  300/ 14/ 19 1016.3F

  
STATION/POSITION TIME  TEMP    WIND        PRES    WAVE   SWELL
                       AIR SEA DIR/SP/G            HT/PER HT/PER/DIR
                 (UTC) (F)     (DEG/KT/KT) (MB)    (FT/S) (FT/S/D)
5E St. Marys GA  0500      59                N/A     2/ 8
Frying Pan Buoy  0510   60 65  280/ 19/ 23 1015.6
Buoy 41025       NOT AVBL
Cape Lookout NC  0500          290/ 20/ 23 1013.6F
Buoy 41002       0510      73              1014.1
Buoy 41010       0510   70 77  300/ 14/ 17 1018.5
St Augustine FL  0500   51 60  260/  4/  4 1020.8F


$$